Weather reports worldwide

Advertisment
Jacksonville, fl, United States of America (2072905): temperature & dewpoint: 16.02.2020 02:00:00 - 22.02.2020 02:00:00 (EST)Jacksonville, fl, United States of America (2072905): wind speed & gusts: 16.02.2020 02:00:00 - 22.02.2020 02:00:00 (EST)Jacksonville, fl, United States of America (2072905): wind direction: 16.02.2020 02:00:00 - 22.02.2020 02:00:00 (EST)Jacksonville, fl, United States of America (2072905): reduced air pressure: 16.02.2020 02:00:00 - 22.02.2020 02:00:00 (EST)Jacksonville, fl, United States of America (2072905): visibility: 16.02.2020 02:00:00 - 22.02.2020 02:00:00 (EST)Jacksonville, fl, United States of America (2072905): precipitation: 16.02.2020 02:00:00 - 22.02.2020 02:00:00 (EST)
Date & Time tt [°C] td [°C] ff [km/h] ff [kn] fx [km/h] fx [kn] dd ppp [hPa] vv [km] rr [mm]
22.02.2020 02:00:00 6,1 -1,1 29 16 - - N 1028,3 11 -
22.02.2020 01:00:00 6,7 -0,6 28 15 - - N 1028,2 11 -
22.02.2020 00:00:00 6,7 -1,1 29 16 - - N 1028,8 11 -
21.02.2020 23:00:00 7,2 -1,7 34 18 - - N 1029,5 11 -
21.02.2020 22:00:00 7,8 -1,1 34 18 - - N 1029,8 11 -
21.02.2020 21:00:00 8,3 -1,1 28 15 - - NNE 1029,5 11 -
21.02.2020 20:00:00 8,3 0,6 29 16 - - NE 1028,7 11 -
21.02.2020 19:00:00 8,9 0,6 26 14 - - NE 1027,9 11 -
21.02.2020 18:00:00 9,4 0,6 31 17 - - NE 1027,3 16 -
21.02.2020 17:00:00 10,6 0,6 26 14 - - NNE 1026,6 16 -
21.02.2020 16:00:00 10,0 1,1 28 15 54 29 NNE 1026,7 16 -
21.02.2020 15:00:00 8,9 1,1 41 22 57 31 NNE 1026,9 16 -
21.02.2020 14:00:00 8,9 2,2 37 20 54 29 NNE 1026,8 16 -
21.02.2020 13:00:00 8,3 2,2 35 19 52 28 NNE 1027,2 16 -
21.02.2020 12:00:00 7,8 2,8 37 20 50 27 N 1027,6 16 -
21.02.2020 11:00:00 7,8 3,3 41 22 50 27 N 1027,3 16 -
21.02.2020 10:00:00 7,2 4,4 37 20 48 26 N 1026,6 10 -
21.02.2020 09:00:00 7,2 4,4 35 19 50 27 N 1025,8 11 0,0
21.02.2020 08:00:00 7,2 5,0 39 21 52 28 N 1024,7 6 0,0
21.02.2020 07:00:00 7,2 5,0 34 18 48 26 N 1023,5 4,0 0,0
21.02.2020 06:00:00 7,8 5,0 37 20 52 28 N 1022,6 16 0,0
21.02.2020 05:00:00 7,8 5,6 37 20 55 30 N 1021,6 16 0,0
21.02.2020 04:00:00 8,3 5,6 44 24 52 28 N 1021,1 16 0,0
21.02.2020 03:00:00 8,3 6,1 35 19 52 28 N 1020,7 13 0,3
21.02.2020 02:00:00 8,9 6,7 37 20 50 27 N 1020,6 6 0,3
21.02.2020 01:00:00 10,0 7,8 35 19 - - N 1020,5 6 0,8
21.02.2020 00:00:00 10,6 8,3 29 16 - - NNE 1020,1 16 0,5
20.02.2020 23:00:00 10,0 7,2 16 9 - - NNE 1019,7 16 0,3
20.02.2020 22:00:00 10,0 7,2 26 14 - - N 1020,2 16 0,3
20.02.2020 21:00:00 11,1 8,3 31 17 - - NNE 1020,1 16 0,8
20.02.2020 20:00:00 12,2 9,4 31 17 - - NNE 1019,3 8 1,8
20.02.2020 19:00:00 13,3 10,6 21 11 - - NNE 1017,8 16 0,0
20.02.2020 18:00:00 13,9 11,1 18 10 - - NNE 1017,1 11 0,0
20.02.2020 17:00:00 15,0 11,7 16 9 - - NNE 1017,1 10 -
20.02.2020 16:00:00 15,6 12,8 18 10 - - NE 1017,3 8 -
20.02.2020 15:00:00 17,2 13,9 11 6 - - NNE 1017,5 6 0,3
20.02.2020 14:00:00 18,9 13,9 16 9 - - NNE 1017,8 8 -
20.02.2020 13:00:00 18,9 13,9 13 7 - - NNE 1019,0 10 -
20.02.2020 12:00:00 18,9 13,3 13 7 - - NE 1019,7 10 -
20.02.2020 11:00:00 17,8 12,8 15 8 - - NE 1020,8 11 -
20.02.2020 10:00:00 17,2 12,8 18 10 - - NE 1021,4 11 -
20.02.2020 09:00:00 16,7 12,8 21 11 - - NE 1021,7 11 -
20.02.2020 08:00:00 16,7 12,8 15 8 - - NNE 1021,7 11 -
20.02.2020 07:00:00 16,1 12,8 18 10 - - NNE 1021,8 11 -
20.02.2020 06:00:00 16,1 12,8 18 10 - - NNE 1021,4 15 -
20.02.2020 05:00:00 16,1 12,8 21 11 - - NNE 1021,5 16 -
20.02.2020 04:00:00 16,7 13,3 18 10 - - NNE 1021,4 13 -
20.02.2020 03:00:00 17,2 13,9 15 8 - - NNE 1021,9 16 -
20.02.2020 02:00:00 16,7 13,9 22 12 - - NE 1022,4 13 -
20.02.2020 01:00:00 17,8 15,0 22 12 - - NE 1022,8 15 -
20.02.2020 00:00:00 18,3 15,6 22 12 - - NE 1023,4 16 -
19.02.2020 23:00:00 18,9 16,1 21 11 - - NE 1023,5 16 -
19.02.2020 22:00:00 19,4 15,6 13 7 - - NNE 1023,8 16 -
19.02.2020 21:00:00 18,9 15,6 13 7 - - ENE 1023,1 16 -
19.02.2020 20:00:00 20,0 15,6 18 10 - - ENE 1022,6 16 -
19.02.2020 19:00:00 21,1 16,7 26 14 - - ENE 1022,3 16 -
19.02.2020 18:00:00 23,3 17,2 22 12 - - NE 1021,5 16 -
19.02.2020 17:00:00 26,1 17,2 8 4 - - SSE 1020,6 16 -
19.02.2020 16:00:00 26,1 17,2 9 5 - - SSE 1020,6 16 -
19.02.2020 15:00:00 25,6 18,3 11 6 - - SE 1021,0 16 -
19.02.2020 14:00:00 25,0 18,3 9 5 - - WSW 1021,4 16 -
19.02.2020 13:00:00 24,4 18,3 5 3 - - - 1022,2 16 -
19.02.2020 12:00:00 23,3 18,3 9 5 - - SE 1022,8 16 -
19.02.2020 11:00:00 22,8 18,3 0 0 - - N 1023,3 11 -
19.02.2020 10:00:00 21,7 17,8 18 10 - - NNW 1023,3 11 -
19.02.2020 09:00:00 21,1 18,3 5 3 - - WNW 1022,5 10 -
19.02.2020 08:00:00 21,1 18,9 15 8 - - W 1021,8 10 -
19.02.2020 07:00:00 21,1 18,9 9 5 - - W 1021,2 10 -
19.02.2020 06:00:00 21,1 18,3 9 5 - - WSW 1020,6 16 -
19.02.2020 05:00:00 21,1 18,3 9 5 - - SW 1020,1 16 -
19.02.2020 04:00:00 21,1 18,3 8 4 - - SSW 1019,9 16 -
19.02.2020 03:00:00 21,1 18,9 9 5 - - S 1019,6 16 -
19.02.2020 02:00:00 21,1 18,9 8 4 - - SSW 1019,8 16 -
19.02.2020 01:00:00 21,7 18,9 9 5 - - SSW 1020,2 16 -
19.02.2020 00:00:00 21,1 18,3 5 3 - - SE 1020,3 16 -
18.02.2020 23:00:00 22,2 18,9 0 0 - - N 1020,2 16 -
18.02.2020 22:00:00 22,8 18,9 0 0 - - N 1020,1 16 -
18.02.2020 21:00:00 22,2 18,9 8 4 - - NNW 1020,0 16 -
18.02.2020 20:00:00 22,2 18,3 9 5 - - N 1019,1 16 -
18.02.2020 19:00:00 25,0 19,4 13 7 - - SE 1018,5 16 -
18.02.2020 18:00:00 27,2 18,3 8 4 - - - 1018,4 16 -
18.02.2020 17:00:00 27,8 18,9 8 4 - - SSE 1018,2 16 -
18.02.2020 16:00:00 28,3 18,9 8 4 - - SSE 1018,4 16 -
18.02.2020 15:00:00 27,8 18,9 8 4 - - SSE 1018,9 16 -
18.02.2020 14:00:00 26,7 18,9 9 5 - - SE 1019,7 16 -
18.02.2020 13:00:00 25,0 18,9 15 8 - - SSW 1020,6 16 -
18.02.2020 12:00:00 23,3 18,3 18 10 - - S 1021,6 15 -
18.02.2020 11:00:00 21,7 17,8 11 6 - - S 1021,8 4,8 -
18.02.2020 10:00:00 17,8 16,1 5 3 - - SE 1022,3 0,8 -
18.02.2020 09:00:00 17,2 15,6 0 0 - - N 1022,1 0,4 -
18.02.2020 08:00:00 16,7 15,0 9 5 - - N 1021,8 0,2 -
18.02.2020 07:00:00 16,7 15,0 5 3 - - NNE 1021,0 0,4 -
18.02.2020 06:00:00 16,7 15,0 5 3 - - E 1020,0 0,4 -
18.02.2020 05:00:00 16,7 15,0 9 5 - - N 1020,4 0,4 -
18.02.2020 04:00:00 16,1 15,0 9 5 - - N 1020,0 0,4 -
18.02.2020 03:00:00 16,7 14,4 9 5 - - N 1020,3 4,8 -
18.02.2020 02:00:00 17,2 14,4 9 5 - - NNW 1020,6 11 -
18.02.2020 01:00:00 16,7 14,4 0 0 - - N 1020,7 15 -
18.02.2020 00:00:00 16,1 13,9 0 0 - - N 1021,0 16 -
17.02.2020 23:00:00 16,1 14,4 0 0 - - N 1021,1 16 -
17.02.2020 22:00:00 16,7 14,4 11 6 - - NNE 1020,6 16 -
17.02.2020 21:00:00 16,1 13,9 9 5 - - NNE 1020,8 16 -
17.02.2020 20:00:00 16,1 13,9 11 6 - - NE 1020,4 16 -
17.02.2020 19:00:00 16,7 14,4 13 7 - - NE 1020,0 16 0,0
17.02.2020 18:00:00 17,2 14,4 11 6 - - NE 1019,6 6 0,5
17.02.2020 17:00:00 17,8 14,4 9 5 - - NE 1019,3 4,8 0,0
17.02.2020 16:00:00 18,9 14,4 15 8 - - NNE 1019,1 16 -
17.02.2020 15:00:00 20,0 14,4 9 5 - - ENE 1018,7 16 -
17.02.2020 14:00:00 19,4 14,4 9 5 - - ENE 1018,6 16 -
17.02.2020 13:00:00 18,9 14,4 8 4 - - ENE 1019,4 16 -
17.02.2020 12:00:00 18,3 14,4 11 6 - - ENE 1019,7 16 -
17.02.2020 11:00:00 17,2 13,9 9 5 - - NE 1019,8 16 -
17.02.2020 10:00:00 16,7 13,9 16 9 - - NE 1019,5 16 -
17.02.2020 09:00:00 16,1 13,9 13 7 - - NE 1019,4 15 -
17.02.2020 08:00:00 15,6 13,9 13 7 - - NNE 1019,0 6 -
17.02.2020 07:00:00 15,6 13,9 11 6 - - NNE 1018,7 11 -
17.02.2020 06:00:00 15,0 13,9 8 4 - - NE 1017,9 1,2 -
17.02.2020 05:00:00 15,6 13,9 9 5 - - NE 1017,5 1,2 -
17.02.2020 04:00:00 15,6 13,9 5 3 - - NE 1017,2 1,6 -
17.02.2020 03:00:00 15,6 13,9 11 6 - - ENE 1016,6 16 -
17.02.2020 02:00:00 16,7 14,4 9 5 - - NE 1017,5 16 -
17.02.2020 01:00:00 16,7 14,4 15 8 - - N 1017,5 10 -
17.02.2020 00:00:00 17,2 15,0 8 4 - - N 1017,6 16 -
16.02.2020 23:00:00 16,7 15,0 0 0 - - N 1017,3 15 -
16.02.2020 22:00:00 17,2 14,4 0 0 - - N 1017,6 16 0,0
16.02.2020 21:00:00 16,7 14,4 22 12 - - ESE 1017,2 16 0,3
16.02.2020 20:00:00 16,7 13,9 9 5 - - NE 1019,6 16 0,0
16.02.2020 19:00:00 17,2 14,4 21 11 - - N 1019,5 16 1,0
16.02.2020 18:00:00 18,9 16,7 44 24 50 27 NNW 1019,4 2,8 4,1
16.02.2020 17:00:00 21,1 17,8 26 14 - - NNW 1018,0 10 0,0
16.02.2020 16:00:00 22,8 16,1 28 15 - - N 1017,3 16 -
16.02.2020 15:00:00 24,4 15,6 8 4 - - SSE 1017,4 10 0,0
16.02.2020 14:00:00 25,0 13,9 13 7 - - S 1018,0 16 -
16.02.2020 13:00:00 24,4 15,0 15 8 - - S 1019,3 16 -
16.02.2020 12:00:00 25,0 16,1 21 11 - - SSW 1020,3 16 -
16.02.2020 11:00:00 23,3 16,1 0 0 - - N 1021,3 16 -
16.02.2020 10:00:00 18,9 14,4 11 6 - - N 1021,7 16 -
16.02.2020 09:00:00 16,7 13,3 9 5 - - N 1021,8 11 -
16.02.2020 08:00:00 15,6 12,8 8 4 - - NW 1021,9 10 -
16.02.2020 07:00:00 15,0 12,8 8 4 - - N 1021,1 11 -
16.02.2020 06:00:00 15,0 12,8 8 4 - - N 1021,2 15 -
16.02.2020 05:00:00 15,0 12,8 0 0 - - N 1021,7 16 -
16.02.2020 04:00:00 15,6 12,8 13 7 - - NE 1022,1 16 -
16.02.2020 03:00:00 15,6 12,8 16 9 - - NNE 1023,1 16 -
16.02.2020 02:00:00 15,6 12,2 15 8 - - NNE 1023,4 16 -

tt = temperature
td = dewpoint
ff = wind speed
fx = gusts
dd = wind direction
ppp = reduced air pressure
vv = visibility
rr = precipitation

Next stations